Regional Weather Roundup
Issued by NWS Jackson, KY

Home | Current Version | Previous Version | Graphics & Text | Print | Product List | Glossary On
Versions: 1 2 3 4 5 6 7 8 9 10 11 12 13 14 15 16 17 18 19 20 21 22 23 24 25 26 27 28 29 30 31 32 33 34 35 36 37 38 39 40 41 42 43 44 45 46 47 48 49 50
000
ASUS43 KJKL 281510
RWRJKL

EAST KENTUCKY HOURLY WEATHER ROUNDUP
NATIONAL WEATHER SERVICE JACKSON KY
1100 AM EDT SAT MAR 28 2015

NOTE: "FAIR" INDICATES FEW OR NO CLOUDS BELOW 12,000 FEET WITH
NO SIGNIFICANT WEATHER AND/OR OBSTRUCTIONS TO VISIBILITY.

* THESE REPORTS ARE NOT UNDER NWS QUALITY CONTROL AND MAY NOT
  REPORT WEATHER SUCH AS PRECIPITATION AND FOG.

KYZ079-080-083-085-087-088-110-112-115-119-120-281600
...EASTERN KENTUCKY...

CITY           SKY/WX    TMP DP  RH WIND       PRES   REMARKS
JACKSON        MOSUNNY   30  12  47 VRB5      30.19R WCI  25
LONDON         MOSUNNY   30  11  45 NW7       30.21R WCI  23
SOMERSET*      MOSUNNY   30  14  51 NE6       30.25R WCI  24
MONTICELLO*    SUNNY     32  16  52 NW7       30.26S WCI  26
MIDDLESBORO*   SUNNY     32  16  50 NE7       30.20R WCI  26
HAZARD APT*    CLOUDY    30  16  55 CALM      30.20R
BLACK MTN*       N/A     18  18 100 N6          N/A  WCI   9
PIKEVILLE APT* SUNNY     27  10  50 N6G16     30.18R WCI  20
BIG SANDY*     SUNNY     30  11  43 N8        30.20R WCI  23
MOREHEAD APT*  MOSUNNY   30   9  40 VRB7      30.25R WCI  23
$$

KYZ035-036-041-042-044-050-067-078-099-281600
...CENTRAL KENTUCKY...

CITY           SKY/WX    TMP DP  RH WIND       PRES   REMARKS
MT STERLING*   MOSUNNY   30  14  51 NE7       30.25R WCI  23
FLEMING/MASON* PTSUNNY   27  12  54 N10       30.27R WCI  17
DANVILLE*      SUNNY     30  18  59 N8        30.25S WCI  23
RICHMOND*      MOSUNNY   28  16  59 NE5       30.23R WCI  23
LEXINGTON      MOSUNNY   29  15  56 N5        30.25R WCI  24
FRANKFORT      MOSUNNY   29  14  53 NE7       30.26R WCI  22
$$

KYZ091>093-OHZ055-061-077-WVZ005-015-034-035-042-281600
...SOUTHERN OHIO/WEST VIRGINIA...

CITY           SKY/WX    TMP DP  RH WIND       PRES   REMARKS
COVINGTON      MOSUNNY   29  14  53 N10       30.27R WCI  20
COLUMBUS       MOSUNNY   25   9  50 NE15      30.25R WCI  13
DAYTON         MOSUNNY   25   9  50 N12       30.27R WCI  14
WILMINGTON     MOSUNNY   23  10  57 N9        30.26R WCI  13
HUNTINGTON     CLOUDY    28  12  51 N10       30.23R WCI  19
CHARLESTON     PTSUNNY   24   7  48 NW13G26   30.20R WCI  12
PINEVILLE*     MOSUNNY   29  10  45 MISG      30.16S
BECKLEY        LGT SNOW  19  11  70 N13       30.05R WCI   6
BLUEFIELD      PTSUNNY   23   3  42 W7G20     30.02R WCI  15
$$

VAZ002-007-008-TNZ017-027-036-066-071-281600
...SOUTHWEST VIRGINIA/EAST TENNESSEE...

CITY           SKY/WX    TMP DP  RH WIND       PRES   REMARKS
WISE*          CLOUDY    25  12  58 N6        30.08R WCI  18
JONESVILLE*    MOSUNNY   32  12  43 N9        30.19R WCI  24
ABINGDON*      CLOUDY    28  14  54 N10G16    30.09S WCI  19
BRISTOL        PTSUNNY   31  13  47 NW10      30.14R WCI  22
KNOXVILLE      MOSUNNY   35  17  47 E6        30.18R WCI  30
OAK RIDGE      SUNNY     37  16  42 VRB5      30.21R WCI  33
CROSSVILLE     SUNNY     31  15  52 MISG      30.16R
NASHVILLE      MOSUNNY   35  12  38 NE9       30.28R WCI  28
$$

...KEY TO REMARKS...
VSB - VISIBILITY IN MILES
WCI - WIND CHILL INDEX
HX  - HEAT INDEX

$$


USA.gov is the U.S. government's official web portal to all federal, state and local government web resources and services.